Regional Weather Roundup
Issued by NWS

Home | Current Version | Previous Version | Text Only | Print | Product List | Glossary Off
Versions: 1 2 3 4 5 6 7 8 9 10 11 12 13 14 15 16 17 18 19 20 21 22 23 24 25 26 27 28 29 30 31 32 33 34 35 36 37 38 39 40 41 42 43 44 45 46 47 48 49 50

000
ASUS43 KFSD 050510
RWRSD

WEATHER ROUNDUP FOR SOUTH DAKOTA
NATIONAL WEATHER SERVICE SIOUX FALLS SD
1200 AM CDT THU MAY 05 2016

NOTE: "FAIR" INDICATES FEW OR NO CLOUDS BELOW 12,000 FEET WITH NO
SIGNIFICANT WEATHER AND/OR OBSTRUCTIONS TO VISIBILITY.


SDZ001>005-009-010-012>017-050600-
NORTHWEST AND NORTH CENTRAL SOUTH DAKOTA

CITY           SKY/WX    TMP DP  RH WIND       PRES   REMARKS
BUFFALO          N/A     57  44  62 SE13      29.92F
FAITH            N/A     54  44  69 SE14      30.00F
MOBRIDGE       CLEAR     55  45  68 SE6       29.97F
$$

SDZ012>016-024>037-041>051-057-063-072>074-050600-
SOUTHWEST AND SOUTH CENTRAL SOUTH DAKOTA

CITY           SKY/WX    TMP DP  RH WIND       PRES   REMARKS
RAPID CTY ARPT CLEAR     53  43  68 SE5       30.02F
PIERRE         CLEAR     57  40  52 S7        30.01S
CUSTER         CLOUDY    49  35  58 CALM      30.14S
ELLSWORTH AFB  CLEAR     55  44  67 S10       30.02S
PHILIP         CLEAR     60  43  53 SE8       30.01F
PINE RIDGE     CLEAR     56  39  53 CALM      30.05S
WINNER         FAIR      53  39  59 S6        30.05S
$$

SDZ004>011-016>023-039-040-050600-
NORTHEAST SOUTH DAKOTA

CITY           SKY/WX    TMP DP  RH WIND       PRES   REMARKS
ABERDEEN       CLEAR     48  36  63 S3        29.99F
WATERTOWN      CLEAR     49  39  68 SW3       30.02S
BROOKINGS      CLEAR     47  34  60 CALM      30.02S
SISSETON         N/A     47  32  56 SW6       29.98S
$$

SDZ017-020-022-023-036>040-048>070-050600-
SOUTHEAST SOUTH DAKOTA

CITY           SKY/WX    TMP DP  RH WIND       PRES   REMARKS
SIOUX FALLS    CLEAR     46  37  71 W3        30.03R
HURON          CLEAR     51  42  71 CALM      30.02R
CHAMBERLAIN    CLEAR     56  45  65 CALM      30.04S
MITCHELL       CLEAR     54  41  61 CALM      30.02F
YANKTON        CLEAR     52  37  58 W5        30.03S
$$

ABBREVIATIONS USED IN REMARKS
   TC - TEMPERATURE IN CELSIUS
  WCI - WIND CHILL INDEX
   HX - HEAT INDEX
  VSB - VISIBILITY




USA.gov is the U.S. government's official web portal to all federal, state and local government web resources and services.